METEOR 2-20 DEB, 44699

Orbit data source: Space-Track

METEOR 2-20 DEB, 44699 is space debris in LEO originally from a launch on Fri, 28 Sep 1990 UTC launched from the Plesetsk Missile And Space Complex (PKMTR). Debris objects in space refer to the collection of defunct objects orbiting the Earth. Examples of debris include non-operational satellites, rocket bodies, and fragments generated from explosions, collisions, or faulty payload assembly.

Loading next visibility...
Identifier
44699, 1990-086D
Orbit
LEO
Country
Flag of CISCIS
Related business
Manufacturer
Unknown
Mission
Spacecraft
Bus & Motor
Unknown
Mass
Unknown
Launch date (UTC)
1990-09-28 (36 years ago)
Launch vehicle
Unknown
Launch site
Plesetsk Missile And Space Complex (PKMTR)
Object type
Payload
Rocket body
Debris
Shape & HBR
Unknown shape, 0.1 m
Radar Cross Section
Small (<0.1 m²)

Expand to show TLE details & history
Last TLE update: 6 days ago

TLE from 6 days ago
0 METEOR 2-20 DEB
1 44699U 90086D   26167.23706544  .00002123  00000-0  14772-2 0  9999
2 44699  82.5162 159.7425 0014831 345.8584  14.2167 13.98288877637463
Epoch: 2026-06-16T05:41Z
TLE epoch observation values (Epoch: 2026-06-16T05:41:22.454Z)
Latitude
0.00004°
Longitude
169.88696°
Altitude
892.183 km
Speed
7.411 km/s
True Right ascension
10h 38m 58s
True Declination
0° 00' 00"
Sunlit
Object was in daylight at epoch
Visualization orbit readout
Latitude
Unknown
Longitude
Unknown
Altitude
Unknown
Speed
Unknown
Apparent Right ascension
Unknown
Apparent Declination
Unknown
Sunlit
N/A
Visualization observer readout
Local Sidereal Time
21:25:45
Azimuth
Unknown
Elevation
Unknown
Doppler factor
Unknown
Orbital elements
Apogee altitude
907.65 km
Perigee altitude
886.071 km
Semi-major axis
7,274.997 km
Eccentricity
0.00148
Inclination
82.5162°
RAAN
159.7425°
Arg. of periapsis
345.8584°
True anomaly
14.25851°
Mean anomaly
14.2167°
Eccentric anomaly
14.2376°
Mean motion
3.49779 °/min
Orbital period
102.92 mins
BSTAR
0.0014772
Loading maneuver chart data...
Computing Atmospheric mass density...
Loading historical data...
Loading historical data...
Loading historical data...
Loading historical data...
Loading historical data...
Loading historical data...
Loading historical data...

Documentation

Showing up to 5 results
|